Home > Weather > Mistelbach > Past weeks

Flag for Austria Past Weather in Mistelbach, Lower Austria, Austria — Yesterday and Last 2 Weeks

Now
63 °F

Overcast.


Feels Like: 63 °F
Forecast: 53 / 71 °F
Wind: 2 mph from West

Location: Wien / Hohe Warte

Current Time: Jun 1, 2016 at 9:34:09 AM

Latest Report: Jun 1, 2016 at 9:00 AM


Visibility: 37 mi

Pressure: 29.89 "Hg

Humidity: 71%

Dew Point: 53 °F

Location of MistelbachLocation

Past Weather in Mistelbach — Graph

°F

Mistelbach Temperature Yesterday

Maximum temperature yesterday: 72 °F (at 12:00 PM)
Minimum temperature yesterday: 61 °F (at 11:00 PM)
Average temperature yesterday: 65 °F

High & Low Weather Summary for the Past Weeks

 TemperatureHumidityPressure
High81 °F (May 29, 4:00 PM)98% (May 29, 6:00 AM)30.13 "Hg (May 29, 6:00 AM)
Low47 °F (May 19, 6:00 AM)36% (May 18, 1:00 PM)29.61 "Hg (May 29, 7:00 PM)
Average63 °F67%29.89 "Hg
* Reported May 17 8:00 AM — Jun 1 8:00 AM, Mistelbach, Weather by CustomWeather, © 2016

Note: Actual official high and low records may vary slightly from our data, if they occured in-between our weather recording intervals... More about our weather records

Advertising

Mistelbach Weather History for the Previous 24 Hours

Scroll right to see more
 ConditionsComfort  
Time TempWeatherWind HumidityBarometerVisibility
8:00 AM
Wed, Jun 1
62 °FOvercast.2 mph74%29.89 "Hg37 mi
7:00 AM61 °FOvercast.2 mph76%29.88 "Hg40 mi
6:00 AM59 °FOvercast.2 mph82%29.88 "Hg40 mi
5:00 AM58 °FOvercast.2 mph84%29.86 "Hg43 mi
4:00 AM60 °FCool.3 mph76%29.87 "HgN/A
3:00 AM60 °FCool.3 mph74%29.87 "HgN/A
2:00 AM59 °FOvercast.2 mph78%29.88 "Hg22 mi
1:00 AM59 °FCool.2 mph79%29.89 "HgN/A
12:00 AM60 °FCool.No wind75%29.88 "HgN/A
11:00 PM
Tue, May 31
61 °FPassing clouds.7 mph72%29.87 "Hg28 mi
10:00 PM62 °FPassing clouds.7 mph71%29.86 "Hg31 mi
9:00 PM64 °FPassing clouds.8 mph68%29.84 "Hg43 mi
7:00 PM67 °FPassing clouds.6 mph65%29.83 "Hg37 mi
6:00 PM69 °FPassing clouds.7 mph62%29.82 "Hg37 mi
5:00 PM69 °FPartly sunny.6 mph69%29.83 "Hg31 mi
3:00 PM66 °FLight rain. Overcast.6 mph73%29.85 "Hg8 mi
12:00 PM72 °FScattered clouds.7 mph58%29.82 "Hg37 mi
11:00 AM69 °FPassing clouds.7 mph62%29.81 "Hg37 mi
10:00 AM68 °FPartly sunny.5 mph66%29.82 "Hg37 mi
9:00 AM66 °FOvercast.5 mph71%29.81 "Hg37 mi
Weather by CustomWeather, © 2016

See weather overviewHow to use our weather pages